EN

Hourly Weather Lagiewniki

Today, 26 July, Monday

Time Temperature Precipitation Wind Pressure Humidity
00:00 +21°C° 0 mm 2 mps 752 mmHg 65%
01:00 +21°C° 0 mm 3 mps 752 mmHg 62%
02:00 +21°C° 0 mm 3 mps 752 mmHg 66%
03:00 +20°C° 0 mm 3 mps 752 mmHg 69%
04:00 +20°C° 0 mm 3 mps 751 mmHg 72%
05:00 +20°C° 0 mm 3 mps 751 mmHg 72%
06:00 +21°C° 0 mm 3 mps 752 mmHg 71%
07:00 +22°C° 0 mm 3 mps 752 mmHg 69%
08:00 +25°C° 0 mm 3 mps 752 mmHg 63%
09:00 +26°C° 0 mm 4 mps 752 mmHg 57%
10:00 +28°C° 0 mm 4 mps 752 mmHg 50%
11:00 +28°C° 0.1 mm 3 mps 751 mmHg 50%
12:00 +28°C° 0.1 mm 3 mps 751 mmHg 51%
13:00 +29°C° 0 mm 2 mps 751 mmHg 49%
14:00 +28°C° 0 mm 2 mps 751 mmHg 51%
15:00 +28°C° 0 mm 1 mps 751 mmHg 53%
16:00 +28°C° 0 mm 1 mps 751 mmHg 55%
17:00 +27°C° 0 mm 1 mps 751 mmHg 57%
18:00 +26°C° 0 mm 1 mps 750 mmHg 60%
19:00 +26°C° 0 mm 1 mps 750 mmHg 62%
20:00 +24°C° 0.4 mm 1 mps 750 mmHg 69%
21:00 +23°C° 0.4 mm 1 mps 750 mmHg 75%
22:00 +21°C° 0.4 mm 1 mps 751 mmHg 81%
23:00 +21°C° 0.1 mm 1 mps 751 mmHg 83%

Tomorrow, 27 July, Tuesday

Time Temperature Precipitation Wind Pressure Humidity
00:00 +20°C° 0.1 mm 2 mps 751 mmHg 84%
01:00 +20°C° 0.1 mm 2 mps 751 mmHg 86%
02:00 +19°C° 0 mm 2 mps 751 mmHg 88%
03:00 +19°C° 0 mm 2 mps 751 mmHg 90%
04:00 +19°C° 0 mm 3 mps 751 mmHg 92%
05:00 +20°C° 0 mm 3 mps 751 mmHg 87%
06:00 +21°C° 0 mm 2 mps 751 mmHg 82%
07:00 +23°C° 0 mm 2 mps 751 mmHg 77%
08:00 +24°C° 0 mm 3 mps 751 mmHg 69%
09:00 +26°C° 0 mm 3 mps 751 mmHg 61%
10:00 +28°C° 0 mm 4 mps 752 mmHg 53%
11:00 +28°C° 0 mm 4 mps 751 mmHg 49%
12:00 +29°C° 0 mm 5 mps 751 mmHg 46%
13:00 +30°C° 0 mm 6 mps 751 mmHg 42%
14:00 +29°C° 0 mm 5 mps 751 mmHg 42%
15:00 +29°C° 0 mm 5 mps 751 mmHg 42%
16:00 +29°C° 0 mm 5 mps 751 mmHg 42%
17:00 +27°C° 0 mm 4 mps 751 mmHg 48%
18:00 +26°C° 0 mm 3 mps 751 mmHg 54%
19:00 +25°C° 0 mm 2 mps 751 mmHg 60%
20:00 +23°C° 0 mm 2 mps 752 mmHg 67%
21:00 +21°C° 0 mm 2 mps 752 mmHg 75%
22:00 +19°C° 0 mm 2 mps 752 mmHg 82%
23:00 +18°C° 0 mm 2 mps 752 mmHg 84%

Day after tomorrow, 28 July, Wednesday

Time Temperature Precipitation Wind Pressure Humidity
00:00 +19°C° 0 mm 1 mps 752 mmHg 86%
01:00 +19°C° 0 mm 1 mps 752 mmHg 88%
02:00 +17°C° 0 mm 2 mps 752 mmHg 88%
03:00 +17°C° 0 mm 2 mps 752 mmHg 89%
04:00 +17°C° 0 mm 2 mps 752 mmHg 89%
05:00 +19°C° 0 mm 3 mps 752 mmHg 82%
06:00 +20°C° 0 mm 3 mps 752 mmHg 74%
07:00 +22°C° 0 mm 4 mps 752 mmHg 67%
08:00 +22°C° 0 mm 4 mps 752 mmHg 64%
09:00 +23°C° 0 mm 4 mps 752 mmHg 62%
10:00 +23°C° 0 mm 4 mps 752 mmHg 59%
11:00 +22°C° 0.2 mm 3 mps 752 mmHg 66%
12:00 +21°C° 0.2 mm 2 mps 752 mmHg 73%
13:00 +21°C° 0.2 mm 2 mps 752 mmHg 80%
14:00 +22°C° 0.3 mm 3 mps 752 mmHg 74%
15:00 +23°C° 0.3 mm 4 mps 751 mmHg 67%
16:00 +25°C° 0.3 mm 4 mps 751 mmHg 61%
17:00 +23°C° 0.1 mm 4 mps 751 mmHg 63%
18:00 +22°C° 0.1 mm 3 mps 751 mmHg 65%
19:00 +21°C° 0.1 mm 3 mps 751 mmHg 67%
20:00 +20°C° 0 mm 3 mps 751 mmHg 73%
21:00 +19°C° 0 mm 3 mps 751 mmHg 80%
22:00 +17°C° 0 mm 3 mps 751 mmHg 87%
23:00 +17°C° 0 mm 3 mps 751 mmHg 90%

29 July, Thursday

Time Temperature Precipitation Wind Pressure Humidity
00:00 +16°C° 0 mm 3 mps 751 mmHg 92%
01:00 +16°C° 0 mm 3 mps 751 mmHg 95%
02:00 +16°C° 0 mm 3 mps 751 mmHg 96%
03:00 +14°C° 0 mm 3 mps 751 mmHg 96%
04:00 +14°C° 0 mm 3 mps 751 mmHg 96%
05:00 +15°C° 0 mm 4 mps 751 mmHg 88%
06:00 +18°C° 0 mm 4 mps 750 mmHg 81%
07:00 +19°C° 0 mm 5 mps 750 mmHg 73%
08:00 +21°C° 0.1 mm 6 mps 750 mmHg 66%
09:00 +22°C° 0.1 mm 6 mps 750 mmHg 58%
10:00 +24°C° 0.1 mm 7 mps 750 mmHg 51%
11:00 +24°C° 0 mm 7 mps 750 mmHg 49%
12:00 +24°C° 0 mm 7 mps 750 mmHg 47%
13:00 +24°C° 0 mm 8 mps 750 mmHg 45%
14:00 +24°C° 0 mm 8 mps 750 mmHg 41%
15:00 +26°C° 0 mm 8 mps 750 mmHg 37%
16:00 +26°C° 0 mm 8 mps 750 mmHg 33%
17:00 +24°C° 0 mm 7 mps 750 mmHg 36%
18:00 +23°C° 0 mm 6 mps 750 mmHg 39%
19:00 +21°C° 0 mm 5 mps 750 mmHg 43%
20:00 +20°C° 0 mm 5 mps 750 mmHg 49%
21:00 +18°C° 0 mm 4 mps 750 mmHg 56%
22:00 +16°C° 0 mm 3 mps 750 mmHg 62%
23:00 +14°C° 0 mm 3 mps 750 mmHg 66%

30 July, Friday

Time Temperature Precipitation Wind Pressure Humidity
00:00 +13°C° 0 mm 3 mps 750 mmHg 70%
01:00 +13°C° 0 mm 3 mps 750 mmHg 74%
02:00 +12°C° 0 mm 3 mps 750 mmHg 76%
03:00 +12°C° 0 mm 3 mps 750 mmHg 78%
04:00 +12°C° 0 mm 3 mps 750 mmHg 80%
05:00 +13°C° 0 mm 4 mps 749 mmHg 73%
06:00 +15°C° 0 mm 4 mps 749 mmHg 66%
07:00 +17°C° 0 mm 5 mps 749 mmHg 59%
08:00 +19°C° 0 mm 6 mps 749 mmHg 54%
09:00 +21°C° 0 mm 6 mps 749 mmHg 49%
10:00 +22°C° 0 mm 7 mps 749 mmHg 44%
11:00 +23°C° 0 mm 7 mps 749 mmHg 41%
12:00 +24°C° 0 mm 7 mps 749 mmHg 38%
13:00 +26°C° 0 mm 7 mps 748 mmHg 35%
14:00 +26°C° 0 mm 7 mps 748 mmHg 35%
15:00 +26°C° 0 mm 6 mps 748 mmHg 35%
16:00 +26°C° 0 mm 6 mps 748 mmHg 34%
17:00 +25°C° 0 mm 5 mps 748 mmHg 39%
18:00 +23°C° 0 mm 4 mps 748 mmHg 44%
19:00 +22°C° 0 mm 3 mps 748 mmHg 49%
20:00 +20°C° 0 mm 3 mps 748 mmHg 56%
21:00 +18°C° 0 mm 2 mps 748 mmHg 63%
22:00 +17°C° 0 mm 2 mps 748 mmHg 70%
23:00 +16°C° 0 mm 2 mps 748 mmHg 72%

31 July, Saturday

Time Temperature Precipitation Wind Pressure Humidity
00:00 +16°C° 0 mm 2 mps 748 mmHg 74%
01:00 +15°C° 0 mm 2 mps 748 mmHg 76%
02:00 +15°C° 0.1 mm 2 mps 747 mmHg 77%
03:00 +16°C° 0.1 mm 2 mps 747 mmHg 78%
04:00 +16°C° 0.1 mm 3 mps 747 mmHg 79%
05:00 +16°C° 0.2 mm 3 mps 747 mmHg 80%
06:00 +17°C° 0.2 mm 4 mps 746 mmHg 80%
07:00 +17°C° 0.2 mm 5 mps 746 mmHg 81%
08:00 +19°C° 0.1 mm 6 mps 746 mmHg 76%
09:00 +18°C° 0.1 mm 7 mps 747 mmHg 70%
10:00 +20°C° 0.1 mm 7 mps 747 mmHg 65%
11:00 +20°C° 0 mm 7 mps 747 mmHg 61%
12:00 +20°C° 0 mm 7 mps 747 mmHg 57%
13:00 +21°C° 0 mm 7 mps 747 mmHg 53%
14:00 +21°C° 0.1 mm 7 mps 747 mmHg 55%
15:00 +21°C° 0.1 mm 7 mps 747 mmHg 58%
16:00 +21°C° 0.1 mm 7 mps 747 mmHg 61%
17:00 +20°C° 0.6 mm 6 mps 747 mmHg 68%
18:00 +19°C° 0.6 mm 6 mps 747 mmHg 76%
19:00 +17°C° 0.6 mm 5 mps 747 mmHg 83%
20:00 +16°C° 0.3 mm 5 mps 747 mmHg 86%
21:00 +15°C° 0.3 mm 5 mps 748 mmHg 89%
22:00 +14°C° 0.3 mm 4 mps 748 mmHg 91%
23:00 +13°C° 0 mm 4 mps 748 mmHg 92%
Show more